SES-7 (PROTOSTAR 2)

Last updated on Thu Oct 23 2025 00:02:54 GMT+0000 (Coordinated Universal Time)

1 34941U 09027A 25294.92885655 -.00000337 00000+0 00000+0 0 9991 2 34941 0.0835 77.3170 0001739 184.5327 211.4205 1.00270352 60241
UTC large
Height (km)
Speed (km/s)
/
Latitude / Longitude
Inclination (degrees)
Orbital Period (minutes)
Azimuth
Elevation
Range (km)
Doppler Factor

Next 0 passes for location: London (51.5072 / 0.1276)

Sorry there are no passes over London.